Weather History for Greenwood, SC

Change the Weather History Date:

Monday, August 11, 2014

  Actual Average (KAND) Record (KAND)
Temperature  
Mean Temperature 78 °F -  
Max Temperature 87 °F 87 °F 100 °F (1956)
Min Temperature 71 °F 68 °F 60 °F (1989)
Cooling Degree Days 14    
Growing Degree Days 28 (Base 50)    
Moisture  
Dew Point 70 °F    
Average Humidity 85    
Maximum Humidity 96    
Minimum Humidity 57    
Precipitation  
Precipitation 0.00 in - - ()
Sea Level Pressure  
Sea Level Pressure 30.02 in    
Wind  
Wind Speed 3 mph (North)    
Max Wind Speed 7 mph    
Max Gust Speed -    
Visibility 5 miles    
Events Fog    
Averages and records for this station are not official NWS values.
T = Trace of Precipitation, MM = Missing Value Source: NWS Daily Summary

Daily Weather History Graph

Daily Weather History Graph

Search for Another Location

Airport:

Trip Planner

Search our weather history database for the weather conditions in past years. The results will help you decide how hot, cold, wet, or windy it might be!

Date:

Astronomy

Aug. 11, 2014 Rise Set
Actual Time 6:46 AM EDT 8:20 PM EDT
Civil Twilight 6:20 AM EDT 8:46 PM EDT
Nautical Twilight 5:47 AM EDT 9:19 PM EDT
Astronomical Twilight 5:14 AM EDT 9:52 PM EDT
Moon 8:54 PM EDT (8/11) 7:45 AM EDT (8/11)
Length of Visible Light 14h 26m
Length of Day
13h 33m
Full, 99% of the Moon is Illuminated
Aug 11
Full
Aug 17
Last Quarter
Aug 25
New
Sep 2
First Quarter
Sep 8
Full

Hourly Weather History & Observations

Time (EDT) Temp. Heat Index Dew Point Humidity Pressure Visibility Wind Dir Wind Speed Gust Speed Precip Events Conditions
12:22 AM 72.0 °F - 69.1 °F 91% 30.08 in 5.0 mi NNE 5.8 mph - N/A   Overcast
12:46 AM 72.0 °F - 70.0 °F 93% 30.07 in 1.8 mi North 4.6 mph - N/A   Overcast
12:56 AM 71.1 °F - 69.1 °F 93% 30.05 in 1.0 mi North 6.9 mph - N/A   Overcast
1:56 AM 71.1 °F - 69.1 °F 93% 30.04 in 0.5 mi NNE 5.8 mph - N/A Fog Fog
2:56 AM 71.1 °F - 69.1 °F 93% 30.03 in 0.5 mi North 4.6 mph - N/A Fog Fog
4:07 AM 71.1 °F - 69.1 °F 93% 30.03 in 0.8 mi North 4.6 mph - N/A   Mist
4:56 AM 71.1 °F - 69.1 °F 93% 30.02 in 0.5 mi NNE 3.5 mph - N/A Fog Fog
5:52 AM 71.6 °F - 69.8 °F 94% 30.03 in 0.5 mi NNE 4.6 mph - N/A Fog Fog
5:56 AM 71.1 °F - 69.1 °F 93% 30.01 in 0.5 mi NNE 3.5 mph - N/A Fog Fog
6:14 AM 71.1 °F - 69.1 °F 93% 30.04 in 0.2 mi NNE 4.6 mph - N/A Fog Fog
6:22 AM 71.1 °F - 69.1 °F 93% 30.04 in 0.5 mi NNE 3.5 mph - N/A Fog Fog
6:56 AM 71.1 °F - 69.1 °F 93% 30.03 in 0.5 mi NNE 5.8 mph - N/A Fog Fog
7:16 AM 71.1 °F - 69.1 °F 93% 30.05 in 0.2 mi North 5.8 mph - N/A Fog Fog
7:56 AM 71.1 °F - 69.1 °F 93% 30.04 in 0.2 mi North 3.5 mph - N/A Fog Fog
8:56 AM 71.1 °F - 69.1 °F 93% 30.05 in 0.2 mi Calm Calm - N/A Fog Fog
9:54 AM 71.6 °F - 69.8 °F 94% 30.08 in 0.5 mi Calm Calm - N/A Fog Fog
9:56 AM 71.1 °F - 70.0 °F 96% 30.06 in 0.5 mi NNW 3.5 mph - N/A Fog Fog
10:12 AM 72.0 °F - 70.0 °F 93% 30.07 in 1.2 mi North 3.5 mph - N/A   Overcast
10:23 AM 72.0 °F - 70.0 °F 93% 30.07 in 3.0 mi Calm Calm - N/A   Overcast
10:38 AM 72.0 °F - 70.0 °F 93% 30.07 in 8.0 mi Calm Calm - N/A   Overcast
10:56 AM 73.0 °F - 70.0 °F 90% 30.05 in 6.0 mi NNW 3.5 mph - N/A   Overcast
11:39 AM 75.0 °F - 70.0 °F 84% 30.06 in 10.0 mi Calm Calm - N/A   Overcast
11:56 AM 75.0 °F - 71.1 °F 87% 30.04 in 10.0 mi Calm Calm - N/A   Overcast
12:12 PM 75.9 °F - 70.0 °F 82% 30.06 in 10.0 mi Calm Calm - N/A   Overcast
12:56 PM 78.1 °F - 71.1 °F 79% 30.03 in 10.0 mi Calm Calm - N/A   Overcast
1:20 PM 79.0 °F - 71.1 °F 77% 30.05 in 10.0 mi Calm Calm - N/A   Overcast
1:56 PM 82.0 °F 86.3 °F 71.1 °F 69% 30.01 in 10.0 mi Calm Calm - N/A   Overcast
2:31 PM 82.9 °F 87.5 °F 71.1 °F 67% 30.01 in 10.0 mi Variable 3.5 mph - N/A   Scattered Clouds
2:56 PM 84.0 °F 88.4 °F 70.0 °F 63% 29.98 in 10.0 mi South 5.8 mph - N/A   Partly Cloudy
3:56 PM 86.0 °F 90.1 °F 69.1 °F 57% 29.96 in 10.0 mi Calm Calm - N/A   Mostly Cloudy
4:56 PM 84.9 °F 89.4 °F 70.0 °F 61% 29.95 in 10.0 mi Calm Calm - N/A   Scattered Clouds
5:56 PM 86.0 °F 90.7 °F 70.0 °F 59% 29.93 in 10.0 mi Calm Calm - N/A   Clear
6:56 PM 84.0 °F 89.0 °F 71.1 °F 65% 29.92 in 10.0 mi WNW 3.5 mph - N/A   Scattered Clouds
7:56 PM 82.9 °F 88.0 °F 72.0 °F 69% 29.92 in 10.0 mi Calm Calm - N/A   Clear
8:56 PM 78.1 °F - 73.0 °F 84% 29.93 in 10.0 mi Calm Calm - N/A   Clear
9:56 PM 77.0 °F - 72.0 °F 84% 29.94 in 10.0 mi Calm Calm - N/A   Clear
10:56 PM 75.0 °F - 72.0 °F 90% 29.95 in 8.0 mi Calm Calm - N/A   Partly Cloudy
11:56 PM 75.0 °F - 72.0 °F 90% 29.95 in 9.0 mi Calm Calm - N/A   Overcast